EDT,Max TemperatureF,Mean TemperatureF,Min TemperatureF,Max Dew PointF,MeanDew PointF,Min DewpointF,Max Humidity, Mean Humidity, Min Humidity, Max Sea Level PressureIn, Mean Sea Level PressureIn, Min Sea Level PressureIn, Max VisibilityMiles, Mean VisibilityMiles, Min VisibilityMiles, Max Wind SpeedMPH, Mean Wind SpeedMPH, Max Gust SpeedMPH,PrecipitationIn, CloudCover, Events, WindDirDegrees
2013-8-1,79,67,55,60,56,54,100,78,46,30.01,29.96,29.85,10,8,0,18,8,25,0.00,2,Fog,157
2013-8-2,67,62,56,63,58,55,100,94,78,29.84,29.76,29.70,10,6,1,21,8,31,1.78,7,Rain-Thunderstorm,153
2013-8-3,66,60,54,61,56,54,100,94,73,29.73,29.71,29.65,10,5,0,31,4,40,1.19,5,Fog-Rain-Thunderstorm,212
2013-8-4,71,61,51,61,54,49,100,88,53,29.75,29.70,29.67,10,6,0,33,5,43,0.77,3,Fog-Rain-Thunderstorm,280
2013-8-5,61,56,51,55,53,45,100,92,72,29.89,29.78,29.73,10,7,1,21,9,26,1.09,6,Rain,314
2013-8-6,73,60,47,53,48,42,83,63,44,30.11,30.02,29.90,10,10,10,15,7,20,0.00,0,,300
2013-8-7,77,65,52,57,54,51,100,76,44,30.17,30.13,30.07,10,8,0,10,5,14,0.00,2,Fog,157
2013-8-8,62,58,53,61,56,49,100,93,69,30.07,30.03,30.00,10,7,0,15,9,26,0.17,6,Fog-Rain,147
2013-8-9,66,64,61,66,63,60,100,98,93,30.00,29.88,29.70,10,4,0,15,7,18,0.06,8,Fog-Rain,153
2013-8-10,67,60,53,63,56,46,100,83,54,29.84,29.69,29.61,10,6,0,28,13,37,0.00,6,Fog,222
2013-8-11,73,61,48,55,50,45,93,70,41,29.89,29.87,29.83,10,10,3,23,9,32,0.05,1,Rain,268
2013-8-12,74,64,53,59,56,52,100,85,53,29.90,29.87,29.83,10,8,1,24,5,33,0.60,4,Rain-Thunderstorm,247
2013-8-13,64,57,49,61,55,48,100,94,77,29.89,29.82,29.70,10,6,0,9,3,13,0.16,5,Fog-Rain,39
2013-8-14,65,58,51,61,55,46,100,86,63,29.69,29.60,29.55,10,8,0,24,11,30,0.02,6,Fog-Rain-Thunderstorm,263
2013-8-15,70,60,49,54,49,44,89,68,49,29.93,29.82,29.68,10,10,10,17,12,23,T,2,Rain,273
2013-8-16,72,62,51,56,53,47,96,77,53,30.17,30.09,30.06,10,10,9,15,4,20,0.01,6,Rain,316
2013-8-17,70,59,48,51,48,46,93,66,45,30.25,30.21,30.17,10,10,10,15,6,18,0.00,1,,311
2013-8-18,79,65,50,55,52,48,93,66,40,30.21,30.08,29.91,10,10,10,22,9,29,0.00,1,,241
2013-8-19,76,68,60,60,56,53,78,67,52,29.89,29.83,29.79,10,10,10,23,11,31,0.00,3,,291
2013-8-20,73,66,58,66,63,56,100,88,73,30.03,29.97,29.88,10,8,1,10,4,13,0.18,5,Rain,146
2013-8-21,85,73,60,66,62,60,100,82,47,30.03,29.97,29.85,10,6,0,20,8,26,0.00,2,Fog,202
2013-8-22,79,70,60,66,62,57,96,84,66,29.84,29.78,29.74,10,7,0,22,7,30,0.55,5,Fog-Rain-Thunderstorm,250
2013-8-23,64,57,50,61,53,41,100,81,45,30.13,29.87,29.75,10,7,0,20,11,25,0.09,5,Fog-Rain,324
2013-8-24,73,59,44,48,44,40,90,60,35,30.28,30.23,30.14,10,10,10,13,5,21,0.00,0,,300
2013-8-25,76,62,47,54,50,44,89,64,43,30.30,30.21,30.06,10,10,10,9,4,13,0.00,0,,230
2013-8-26,70,63,56,63,58,53,100,88,75,30.04,29.87,29.79,10,10,4,8,6,,0.05,7,Rain,209
2013-8-27,75,66,57,60,57,56,93,72,57,29.91,29.87,29.85,10,10,10,12,6,16,0.00,4,,323
2013-8-28,72,64,55,63,58,51,97,84,70,30.12,29.97,29.89,10,9,2,17,6,23,0.05,5,Rain,31
2013-8-29,65,56,47,50,47,45,93,75,56,30.25,30.16,30.06,10,10,10,15,7,21,0.00,5,,63
2013-8-30,68,55,41,58,49,40,100,88,65,30.04,29.88,29.75,10,7,0,12,3,15,0.01,3,Fog-Rain,321
2013-8-31,74,66,58,63,59,55,100,88,59,29.84,29.80,29.75,10,7,0,10,3,15,0.03,7,Fog-Rain,184